Location: Baia Mare
(47.6567°N, 23.5850°E)
Time: 03:21:11
(UTC+03:00)

ISS - Pass Details

Date: 22 July 2018
Orbit: 402 x 408 km, 51.6° (Epoch: 17 July)

Event Time Altitude Azimuth Distance (km) Brightness Sun altitude
Rises 01:31:32 0° 285° (WNW) 2,326 0.2 -22.0°
Reaches altitude 10° 01:33:42 10° 293° (WNW) 1,467 -0.7 -22.0°
Maximum altitude 01:36:50 41° 6° (N) 609 -2.5 -22.0°
Drops below altitude 10° 01:39:58 10° 78° (ENE) 1,468 -0.9 -22.0°
Sets 01:42:08 0° 86° (E) 2,329 0.1 -22.0°
